TimeEST,TemperatureF,Dew PointF,Humidity,Sea Level PressureIn,VisibilityMPH,Wind Direction,Wind SpeedMPH,Gust SpeedMPH,PrecipitationIn,Events,Conditions,WindDirDegrees,DateUTC
12:56 AM,37.9,34.0,86,30.25,10.0,NW,4.6,-,N/A,,Clear,320,2012-11-10 05:56:00
1:56 AM,37.0,34.0,89,30.26,10.0,NW,4.6,-,N/A,,Clear,320,2012-11-10 06:56:00
2:56 AM,37.0,33.1,86,30.28,10.0,NW,6.9,-,N/A,,Clear,310,2012-11-10 07:56:00
3:56 AM,36.0,33.1,89,30.28,9.0,NW,4.6,-,N/A,,Clear,310,2012-11-10 08:56:00
4:56 AM,35.1,32.0,89,30.29,8.0,NW,8.1,-,N/A,,Clear,310,2012-11-10 09:56:00
5:56 AM,35.1,30.9,85,30.31,7.0,NW,8.1,-,N/A,,Clear,310,2012-11-10 10:56:00
6:56 AM,34.0,30.9,89,30.33,6.0,NW,4.6,-,N/A,,Clear,320,2012-11-10 11:56:00
7:56 AM,37.9,35.1,89,30.35,7.0,Calm,Calm,-,N/A,,Clear,0,2012-11-10 12:56:00
8:56 AM,43.0,39.0,86,30.35,7.0,Calm,Calm,-,N/A,,Clear,0,2012-11-10 13:56:00
9:56 AM,46.9,39.9,77,30.36,10.0,Calm,Calm,-,N/A,,Clear,0,2012-11-10 14:56:00
10:56 AM,50.0,39.0,66,30.36,10.0,Calm,Calm,-,N/A,,Clear,0,2012-11-10 15:56:00
11:56 AM,52.0,42.1,69,30.34,10.0,Calm,Calm,-,N/A,,Clear,0,2012-11-10 16:56:00
12:56 PM,55.9,37.9,51,30.31,10.0,SSW,3.5,-,N/A,,Clear,210,2012-11-10 17:56:00
1:56 PM,57.9,37.9,47,30.30,10.0,SSW,3.5,-,N/A,,Clear,200,2012-11-10 18:56:00
2:56 PM,57.0,39.0,51,30.30,10.0,Calm,Calm,-,N/A,,Clear,0,2012-11-10 19:56:00
3:56 PM,55.9,39.9,55,30.30,10.0,SE,3.5,-,N/A,,Clear,140,2012-11-10 20:56:00
4:56 PM,57.0,39.9,53,30.32,10.0,Calm,Calm,-,N/A,,Clear,0,2012-11-10 21:56:00
5:56 PM,52.0,44.1,74,30.34,10.0,SSW,3.5,-,N/A,,Clear,200,2012-11-10 22:56:00
6:56 PM,51.1,41.0,68,30.34,10.0,Calm,Calm,-,N/A,,Clear,0,2012-11-10 23:56:00
7:56 PM,48.9,39.9,71,30.35,10.0,WNW,4.6,-,N/A,,Clear,300,2012-11-11 00:56:00
8:56 PM,46.9,41.0,80,30.37,10.0,Calm,Calm,-,N/A,,Clear,0,2012-11-11 01:56:00
9:56 PM,46.0,39.9,79,30.38,10.0,NW,3.5,-,N/A,,Clear,310,2012-11-11 02:56:00
10:56 PM,44.1,39.0,82,30.38,10.0,NW,4.6,-,N/A,,Clear,320,2012-11-11 03:56:00
11:56 PM,43.0,37.9,82,30.39,10.0,NW,3.5,-,N/A,,Clear,320,2012-11-11 04:56:00